Tracking 21475 objects as of 29-Sep-2020
HD Live streaming from Space Station
objects crossing your sky now

SCATHA AKM

Track SCATHA AKM now!


NORAD ID: 29000
Int'l Code: 1979-007C
Perigee: 28,223.4 km
Apogee: 42,632.0 km
Inclination: 14.7 °
Period: 1,417.4 minutes
Semi major axis: 41798 km
RCS: 0.003 m2 (small)
Launch date: January 30, 1979
Source: United States (US)
Launch site: AIR FORCE EASTERN TEST RANGE (AFETR)

Note: This is a ROCKET BODY
aabbcc
Your satellite tracking list
Your tracking list is empty




NASA's NSSDC Master Catalog

Two Line Element Set (TLE):
1 29000U 79007C   20272.71668380 -.00000268 +00000-0 +00000-0 0  9993
2 29000 014.6622 309.1208 1723569 065.4293 314.8850 01.01591805026747
Source of the keplerian elements: AFSPC